Simultaneous Nadir Overpasses (SNOs) Predictions

Prediction of SNOs between METOP-A and NOAA-19 Satellite Orbit:

Table of predicted SNOs for the next 14.0 days since TLE Epoch: 11/16/2015
Index Date (METOP-A) Time (METOP-A) Lat,Lon (METOP-A) SZA (METOP-A ) Date (NOAA-19) Time (NOAA-19) Lat,Lon (NOAA-19) SZA (NOAA-19 ) Distance(km) Time Diff (sec)
1 11/21/2015 05:57:51 -75.55, -91.07 84.69 11/21/2015 05:56:38 -75.52, -91.08 84.72 2.85 73
2 11/21/2015 06:48:31 75.52, 76.19 95.30 11/21/2015 06:47:41 75.53, 76.12 95.31 2.23 50
3 11/21/2015 07:39:14 -75.48,-116.60 84.74 11/21/2015 07:38:40 -75.50,-116.53 84.72 2.90 34
4 11/21/2015 08:29:53 75.51, 50.80 95.30 11/21/2015 08:29:43 75.51, 50.67 95.31 3.75 10
5 11/21/2015 09:20:36 -75.47,-141.99 84.74 11/21/2015 09:20:42 -75.49,-141.98 84.72 2.00 6
6 11/21/2015 10:11:16 75.44, 25.26 95.25 11/21/2015 10:11:44 75.45, 25.37 95.26 3.12 28
7 11/21/2015 11:01:57 -75.45,-167.38 84.74 11/21/2015 11:02:43 -75.47,-167.43 84.72 2.28 46
8 11/21/2015 11:52:37 75.43, -0.13 95.25 11/21/2015 11:53:45 75.43, -0.08 95.26 1.54 68
9 11/21/2015 12:43:28 -75.01, 165.96 85.17 11/21/2015 12:44:36 -75.04, 168.41 85.13 70.43 68




NCC Satellite Simultaneous Nadir Overpasses (SNOs) Prediction Service
